Tel Aviv, Israel

11:04 AM IDT on August 24, 2017 (GMT +0300)
Ben Gurion

Weather History for LLBG - March, 2013

Change the Weather History Date:

Tuesday, March 26, 2013

  Actual Average Record
Temperature  
Mean Temperature 70 °F -  
Max Temperature 90 °F 72 °F 90 °F (2013)
Min Temperature 51 °F 55 °F 42 °F (1997)
Cooling Degree Days 6    
Growing Degree Days 20 (Base 50)    
Moisture  
Dew Point 43 °F    
Average Humidity 46    
Maximum Humidity 82    
Minimum Humidity 6    
Precipitation  
Precipitation 0.00 in - - ()
Sea Level Pressure  
Sea Level Pressure 29.79 in    
Wind  
Wind Speed 5 mph ()    
Max Wind Speed 17 mph    
Max Gust Speed 30 mph    
Visibility 5.7 miles    
Events      
Averages and records for this station are not official NWS values.
T = Trace of Precipitation, MM = Missing Value Source: Averaged Metar Reports

Daily Weather History Graph

Daily Weather History Graph

Search for Another Location

Airport or City:

Trip Planner

Search our weather history database for the weather conditions in past years. The results will help you decide how hot, cold, wet, or windy it might be!

Date:

Astronomy

Mar. 26, 2013 Rise Set
Actual Time 5:36 AM IST 5:55 PM IST
Civil Twilight 5:12 AM IST 6:20 PM IST
Nautical Twilight 4:43 AM IST 6:49 PM IST
Astronomical Twilight 4:14 AM IST 7:18 PM IST
Moon 5:10 PM IST (3/26) 4:39 AM IST (3/26)
Length of Visible Light 13h 08m
Length of Day
12h 19m
Waxing Gibbous, 99% of the Moon is Illuminated
Mar 26
Waxing Gibbous
Mar 27
Full
Apr 3
Last Quarter
Apr 10
New
Apr 18
First Quarter

Hourly Weather History & Observations

Time (IST) Temp. Dew Point Humidity Pressure Visibility Wind Dir Wind Speed Gust Speed Precip Events Conditions
12:20 AM 59.0 °F 50.0 °F 72% 29.89 in - Variable 1.2 mph - N/A   Clear
12:50 AM 59.0 °F 50.0 °F 72% 29.89 in - Variable 3.5 mph - N/A   Clear
1:20 AM 57.2 °F 48.2 °F 72% 29.86 in - East 4.6 mph - N/A   Clear
1:50 AM 59.0 °F 48.2 °F 67% 29.86 in - SE 4.6 mph - N/A   Clear
2:00 AM 58 °F 48 °F 61% 29.86 in 6 mi 3.5 mph - -  
2:20 AM 57.2 °F 48.2 °F 72% 29.86 in - Variable 3.5 mph - N/A   Clear
2:50 AM 57.2 °F 46.4 °F 67% 29.83 in - SE 4.6 mph - N/A   Clear
3:20 AM 57.2 °F 46.4 °F 67% 29.83 in - Variable 1.2 mph - N/A   Clear
3:50 AM 51.8 °F 46.4 °F 82% 29.83 in - Variable 1.2 mph - N/A   Clear
4:20 AM 55.4 °F 46.4 °F 72% 29.83 in - Variable 3.5 mph - N/A   Clear
4:50 AM 51.8 °F 44.6 °F 76% 29.83 in - East 5.8 mph - N/A   Clear
5:20 AM 51.8 °F 42.8 °F 71% 29.83 in - Variable 3.5 mph - N/A   Clear
5:50 AM 53.6 °F 44.6 °F 72% 29.83 in - Variable 3.5 mph - N/A   Clear
6:20 AM 55.4 °F 42.8 °F 63% 29.83 in - ESE 4.6 mph - N/A   Clear
6:50 AM 57.2 °F 44.6 °F 63% 29.83 in - Variable 2.3 mph - N/A   Clear
7:20 AM 64.4 °F 44.6 °F 49% 29.83 in - Variable 1.2 mph - N/A   Clear
7:50 AM 66.2 °F 44.6 °F 46% 29.80 in - Variable 2.3 mph - N/A   Clear
8:00 AM 66 °F 44 °F 33% 29.82 in 6 mi 2.3 mph - -   Mostly Cloudy
8:20 AM 68.0 °F 48.2 °F 49% 29.80 in - Variable 2.3 mph - N/A   Clear
8:50 AM 71.6 °F 46.4 °F 41% 29.80 in - Variable 1.2 mph - N/A   Clear
9:20 AM 77.0 °F 41.0 °F 28% 29.80 in - Variable 1.2 mph - N/A   Clear
9:50 AM 80.6 °F 48.2 °F 32% 29.80 in - West 5.8 mph - N/A   Clear
10:20 AM 84.2 °F 44.6 °F 25% 29.77 in - Variable 3.5 mph - N/A   Clear
10:50 AM 87.8 °F 39.2 °F 18% 29.77 in - WSW 4.6 mph - N/A   Clear
11:20 AM 91.4 °F 32.0 °F 12% 29.74 in - South 11.5 mph - N/A   Clear
11:50 AM 91.4 °F 24.8 °F 9% 29.74 in 5.6 mi SSW 15.0 mph - N/A   Clear
12:20 PM 91.4 °F 26.6 °F 10% 29.71 in 5.6 mi South 15.0 mph 29.9 mph N/A   Clear
12:50 PM 91.4 °F 24.8 °F 9% 29.71 in 5.6 mi SSW 15.0 mph - N/A   Clear
1:20 PM 91.4 °F 33.8 °F 13% 29.71 in 5.6 mi WSW 13.8 mph - N/A   Clear
1:50 PM 91.4 °F 28.4 °F 10% 29.68 in 5.6 mi WSW 15.0 mph - N/A   Clear
2:00 PM 90 °F 31 °F 6% 29.70 in 6 mi WSW 15.0 mph - -  
2:20 PM 89.6 °F 30.2 °F 12% 29.68 in 5.6 mi WSW 11.5 mph - N/A   Unknown
2:50 PM 89.6 °F 30.2 °F 12% 29.68 in 5.6 mi WSW 10.4 mph - N/A   Unknown
3:20 PM 89.6 °F 30.2 °F 12% 29.65 in 5.0 mi WSW 11.5 mph - N/A   Partly Cloudy
3:50 PM 87.8 °F 26.6 °F 11% 29.65 in 5.0 mi WSW 10.4 mph - N/A   Unknown
4:20 PM 86.0 °F 28.4 °F 12% 29.65 in 5.0 mi WSW 8.1 mph - N/A   Partly Cloudy
4:50 PM 84.2 °F 33.8 °F 16% 29.68 in 4.3 mi West 11.5 mph - N/A   Partly Cloudy
5:20 PM 82.4 °F 33.8 °F 17% 29.68 in 4.3 mi North 8.1 mph - N/A   Scattered Clouds
5:50 PM 75.2 °F 48.2 °F 38% 29.71 in 5.6 mi WNW 17.3 mph - N/A   Mostly Cloudy
6:20 PM 75.2 °F 44.6 °F 34% 29.74 in 5.6 mi WNW 6.9 mph - N/A   Mostly Cloudy
6:50 PM 71.6 °F 50.0 °F 46% 29.77 in 6.2 mi West 16.1 mph - N/A   Mostly Cloudy
7:20 PM 69.8 °F 48.2 °F 46% 29.80 in 6.2 mi West 8.1 mph - N/A   Mostly Cloudy
7:50 PM 68.0 °F 50.0 °F 52% 29.80 in 6.2 mi West 12.7 mph - N/A   Mostly Cloudy
8:00 PM 68 °F 51 °F 43% 29.82 in 6 mi West 13.8 mph - -   Mostly Cloudy
8:20 PM 66.2 °F 55.4 °F 68% 29.83 in - West 8.1 mph - N/A   Clear
8:50 PM 64.4 °F 55.4 °F 73% 29.86 in - West 5.8 mph - N/A   Clear
9:20 PM 66.2 °F 55.4 °F 68% 29.86 in 6.2 mi West 9.2 mph - N/A   Mostly Cloudy
9:50 PM 64.4 °F 57.2 °F 77% 29.89 in 6.2 mi West 8.1 mph - N/A   Scattered Clouds
10:20 PM 64.4 °F 55.4 °F 73% 29.89 in 6.2 mi SW 5.8 mph - N/A   Scattered Clouds
10:50 PM 64.4 °F 55.4 °F 73% 29.89 in 6.2 mi WSW 4.6 mph - N/A   Scattered Clouds
11:20 PM 64.4 °F 55.4 °F 73% 29.89 in 6.2 mi SW 4.6 mph - N/A   Scattered Clouds
11:50 PM 64.4 °F 55.4 °F 73% 29.89 in 6.2 mi SSW 4.6 mph - N/A   Partly Cloudy